Year,Month,Day,Hour,Minute,Value (Times are PST for windgust in km/hr)
2016,11,21,00,00,1.60
2016,11,21,00,01,1.60
2016,11,21,00,02,1.60
2016,11,21,00,03,1.60
2016,11,21,00,04,1.60
2016,11,21,00,22,4.80
2016,11,21,00,23,6.40
2016,11,21,00,24,6.40
2016,11,21,00,25,3.20
2016,11,21,00,26,6.40
2016,11,21,00,27,3.20
2016,11,21,00,28,3.20
2016,11,21,00,30,3.20
2016,11,21,00,31,3.20
2016,11,21,00,32,1.60
2016,11,21,00,33,1.60
2016,11,21,00,34,1.60
2016,11,21,00,35,1.60
2016,11,21,00,36,1.60
2016,11,21,00,37,1.60
2016,11,21,01,14,3.20
2016,11,21,01,15,4.80
2016,11,21,01,16,3.20
2016,11,21,01,17,3.20
2016,11,21,01,19,4.80
2016,11,21,01,20,3.20
2016,11,21,01,21,3.20
2016,11,21,01,22,3.20
2016,11,21,01,23,1.60
2016,11,21,01,25,1.60
2016,11,21,01,26,1.60
2016,11,21,01,27,3.20
2016,11,21,01,28,4.80
2016,11,21,01,29,6.40
2016,11,21,01,30,4.80
2016,11,21,01,31,6.40
2016,11,21,01,32,6.40
2016,11,21,01,33,3.20
2016,11,21,01,34,3.20
2016,11,21,01,35,3.20
2016,11,21,01,36,4.80
2016,11,21,01,37,6.40
2016,11,21,01,38,9.60
2016,11,21,01,39,14.50
2016,11,21,01,40,12.90
2016,11,21,01,41,14.50
2016,11,21,01,42,14.50
2016,11,21,01,43,16.10
2016,11,21,01,44,12.90
2016,11,21,01,45,17.70
2016,11,21,01,46,16.10
2016,11,21,01,47,12.90
2016,11,21,01,48,14.50
2016,11,21,01,49,8.10
2016,11,21,01,50,9.60
2016,11,21,01,51,11.30
2016,11,21,01,52,12.90
2016,11,21,01,53,11.30
2016,11,21,01,54,11.30
2016,11,21,01,55,9.60
2016,11,21,01,56,11.30
2016,11,21,01,57,8.10
2016,11,21,01,58,8.10
2016,11,21,01,59,6.40
2016,11,21,02,00,11.30
2016,11,21,02,01,9.60
2016,11,21,02,02,11.30
2016,11,21,02,03,11.30
2016,11,21,02,04,14.50
2016,11,21,02,05,16.10
2016,11,21,02,06,17.70
2016,11,21,02,07,14.50
2016,11,21,02,08,12.90
2016,11,21,02,09,16.10
2016,11,21,02,10,16.10
2016,11,21,02,11,14.50
2016,11,21,02,12,12.90
2016,11,21,02,13,11.30
2016,11,21,02,14,12.90
2016,11,21,02,15,8.10
2016,11,21,02,16,12.90
2016,11,21,02,17,12.90
2016,11,21,02,18,8.10
2016,11,21,02,19,12.90
2016,11,21,02,20,11.30
2016,11,21,02,21,8.10
2016,11,21,02,22,12.90
2016,11,21,02,23,12.90
2016,11,21,02,24,11.30
2016,11,21,02,25,8.10
2016,11,21,02,26,14.50
2016,11,21,02,27,14.50
2016,11,21,02,28,8.10
2016,11,21,02,29,6.40
2016,11,21,02,30,8.10
2016,11,21,02,31,4.80
2016,11,21,02,32,4.80
2016,11,21,02,33,4.80
2016,11,21,02,34,4.80
2016,11,21,02,35,4.80
2016,11,21,02,36,3.20
2016,11,21,02,37,3.20
2016,11,21,02,38,8.10
2016,11,21,02,39,4.80
2016,11,21,02,40,6.40
2016,11,21,02,41,8.10
2016,11,21,02,42,8.10
2016,11,21,02,43,8.10
2016,11,21,02,44,6.40
2016,11,21,02,45,4.80
2016,11,21,02,46,8.10
2016,11,21,02,47,8.10
2016,11,21,02,48,8.10
2016,11,21,02,49,8.10
2016,11,21,02,50,6.40
2016,11,21,02,51,12.90
2016,11,21,02,52,12.90
2016,11,21,02,53,9.60
2016,11,21,02,54,12.90
2016,11,21,02,55,9.60
2016,11,21,02,56,9.60
2016,11,21,02,57,9.60
2016,11,21,02,58,9.60
2016,11,21,02,59,9.60
2016,11,21,03,00,8.10
2016,11,21,03,01,6.40
2016,11,21,03,02,4.80
2016,11,21,03,03,8.10
2016,11,21,03,04,6.40
2016,11,21,03,05,4.80
2016,11,21,03,06,4.80
2016,11,21,03,07,4.80
2016,11,21,03,08,6.40
2016,11,21,03,09,4.80
2016,11,21,03,10,6.40
2016,11,21,03,11,4.80
2016,11,21,03,12,8.10
2016,11,21,03,13,16.10
2016,11,21,03,14,12.90
2016,11,21,03,15,16.10
2016,11,21,03,16,9.60
2016,11,21,03,17,8.10
2016,11,21,03,18,8.10
2016,11,21,03,19,9.60
2016,11,21,03,20,8.10
2016,11,21,03,21,12.90
2016,11,21,03,22,12.90
2016,11,21,03,23,9.60
2016,11,21,03,24,6.40
2016,11,21,03,25,9.60
2016,11,21,03,26,8.10
2016,11,21,03,27,6.40
2016,11,21,03,28,6.40
2016,11,21,03,29,8.10
2016,11,21,03,30,9.60
2016,11,21,03,31,11.30
2016,11,21,03,32,4.80
2016,11,21,03,33,11.30
2016,11,21,03,34,6.40
2016,11,21,03,35,6.40
2016,11,21,03,36,6.40
2016,11,21,03,37,6.40
2016,11,21,03,38,4.80
2016,11,21,03,39,6.40
2016,11,21,03,40,6.40
2016,11,21,03,41,4.80
2016,11,21,03,42,4.80
2016,11,21,03,43,4.80
2016,11,21,03,44,4.80
2016,11,21,03,45,3.20
2016,11,21,03,46,3.20
2016,11,21,03,47,3.20
2016,11,21,03,48,3.20
2016,11,21,03,49,4.80
2016,11,21,03,50,4.80
2016,11,21,03,51,4.80
2016,11,21,03,52,4.80
2016,11,21,03,53,3.20
2016,11,21,03,54,4.80
2016,11,21,03,55,3.20
2016,11,21,03,56,3.20
2016,11,21,03,57,6.40
2016,11,21,03,58,4.80
2016,11,21,03,59,4.80
2016,11,21,04,00,4.80
2016,11,21,04,01,3.20
2016,11,21,04,02,4.80
2016,11,21,04,03,3.20
2016,11,21,04,04,1.60
2016,11,21,04,05,4.80
2016,11,21,04,06,3.20
2016,11,21,04,07,8.10
2016,11,21,04,08,11.30
2016,11,21,04,09,6.40
2016,11,21,04,10,3.20
2016,11,21,04,11,4.80
2016,11,21,04,12,6.40
2016,11,21,04,13,4.80
2016,11,21,04,14,8.10
2016,11,21,04,15,9.60
2016,11,21,04,16,4.80
2016,11,21,04,17,4.80
2016,11,21,04,18,4.80
2016,11,21,04,19,6.40
2016,11,21,04,20,11.30
2016,11,21,04,21,12.90
2016,11,21,04,22,4.80
2016,11,21,04,23,3.20
2016,11,21,04,24,4.80
2016,11,21,04,25,4.80
2016,11,21,04,26,11.30
2016,11,21,04,27,8.10
2016,11,21,04,28,11.30
2016,11,21,04,29,9.60
2016,11,21,04,30,4.80
2016,11,21,04,31,11.30
2016,11,21,04,32,3.20
2016,11,21,04,33,6.40
2016,11,21,04,34,3.20
2016,11,21,04,35,4.80
2016,11,21,04,36,3.20
2016,11,21,04,37,6.40
2016,11,21,04,38,8.10
2016,11,21,04,39,9.60
2016,11,21,04,40,8.10
2016,11,21,04,41,6.40
2016,11,21,04,42,8.10
2016,11,21,04,43,6.40
2016,11,21,04,44,6.40
2016,11,21,04,45,4.80
2016,11,21,04,46,8.10
2016,11,21,04,47,11.30
2016,11,21,04,48,8.10
2016,11,21,04,49,8.10
2016,11,21,04,50,11.30
2016,11,21,04,51,8.10
2016,11,21,04,52,6.40
2016,11,21,04,53,4.80
2016,11,21,04,54,4.80
2016,11,21,04,55,4.80
2016,11,21,04,56,6.40
2016,11,21,04,57,4.80
2016,11,21,04,58,3.20
2016,11,21,04,59,3.20
2016,11,21,05,00,3.20
2016,11,21,05,01,1.60
2016,11,21,05,02,1.60
2016,11,21,05,03,3.20
2016,11,21,05,04,3.20
2016,11,21,05,05,6.40
2016,11,21,05,06,6.40
2016,11,21,05,07,8.10
2016,11,21,05,08,4.80
2016,11,21,05,09,4.80
2016,11,21,05,10,4.80
2016,11,21,05,11,4.80
2016,11,21,05,12,3.20
2016,11,21,05,13,3.20
2016,11,21,05,14,3.20
2016,11,21,05,15,3.20
2016,11,21,05,16,3.20
2016,11,21,05,17,3.20
2016,11,21,05,18,3.20
2016,11,21,05,19,1.60
2016,11,21,05,20,1.60
2016,11,21,05,21,1.60
2016,11,21,05,26,1.60
2016,11,21,05,27,1.60
2016,11,21,05,28,1.60
2016,11,21,05,29,3.20
2016,11,21,05,39,3.20
2016,11,21,05,40,4.80
2016,11,21,05,41,3.20
2016,11,21,05,42,3.20
2016,11,21,05,43,4.80
2016,11,21,05,44,4.80
2016,11,21,05,45,4.80
2016,11,21,05,46,3.20
2016,11,21,05,47,3.20
2016,11,21,05,48,3.20
2016,11,21,05,49,1.60
2016,11,21,05,50,3.20
2016,11,21,05,51,3.20
2016,11,21,05,52,1.60
2016,11,21,05,53,4.80
2016,11,21,05,54,4.80
2016,11,21,05,55,4.80
2016,11,21,05,56,4.80
2016,11,21,05,57,8.10
2016,11,21,05,58,6.40
2016,11,21,05,59,6.40
2016,11,21,06,00,3.20
2016,11,21,06,01,4.80
2016,11,21,06,02,3.20
2016,11,21,06,03,3.20
2016,11,21,06,04,4.80
2016,11,21,06,05,3.20
2016,11,21,06,06,3.20
2016,11,21,06,07,3.20
2016,11,21,06,08,3.20
2016,11,21,06,09,3.20
2016,11,21,06,10,4.80
2016,11,21,06,11,3.20
2016,11,21,06,12,4.80
2016,11,21,06,13,6.40
2016,11,21,06,14,3.20
2016,11,21,06,15,6.40
2016,11,21,06,16,4.80
2016,11,21,06,17,4.80
2016,11,21,06,18,4.80
2016,11,21,06,19,6.40
2016,11,21,06,20,6.40
2016,11,21,06,21,6.40
2016,11,21,06,22,4.80
2016,11,21,06,23,6.40
2016,11,21,06,24,8.10
2016,11,21,06,25,8.10
2016,11,21,06,26,9.60
2016,11,21,06,27,11.30
2016,11,21,06,28,6.40
2016,11,21,06,29,9.60
2016,11,21,06,30,9.60
2016,11,21,06,31,6.40
2016,11,21,06,32,8.10
2016,11,21,06,33,6.40
2016,11,21,06,34,6.40
2016,11,21,06,35,4.80
2016,11,21,06,36,3.20
2016,11,21,06,37,3.20
2016,11,21,06,38,3.20
2016,11,21,06,39,3.20
2016,11,21,06,40,4.80
2016,11,21,06,41,3.20
2016,11,21,06,42,3.20
2016,11,21,06,43,3.20
2016,11,21,06,44,3.20
2016,11,21,06,45,3.20
2016,11,21,06,46,3.20
2016,11,21,06,47,4.80
2016,11,21,06,48,4.80
2016,11,21,06,49,4.80
2016,11,21,06,50,4.80
2016,11,21,06,51,3.20
2016,11,21,06,52,1.60
2016,11,21,06,54,1.60
2016,11,21,06,55,1.60
2016,11,21,06,56,1.60
2016,11,21,06,57,1.60
2016,11,21,06,58,1.60
2016,11,21,06,59,1.60
2016,11,21,07,00,1.60
2016,11,21,07,01,1.60
2016,11,21,07,02,1.60
2016,11,21,07,03,1.60
2016,11,21,07,07,1.60
2016,11,21,07,08,1.60
2016,11,21,07,09,1.60
2016,11,21,07,10,1.60
2016,11,21,08,18,6.40
2016,11,21,08,19,6.40
2016,11,21,08,20,6.40
2016,11,21,08,21,6.40
2016,11,21,08,22,6.40
2016,11,21,08,23,6.40
2016,11,21,08,24,6.40
2016,11,21,08,25,3.20
2016,11,21,08,26,6.40
2016,11,21,08,27,1.60
2016,11,21,08,28,1.60
2016,11,21,08,29,3.20
2016,11,21,08,30,1.60
2016,11,21,08,41,3.20
2016,11,21,08,42,3.20
2016,11,21,08,43,3.20
2016,11,21,08,44,3.20
2016,11,21,08,45,3.20
2016,11,21,08,46,3.20
2016,11,21,08,47,3.20
2016,11,21,08,48,1.60
2016,11,21,08,52,6.40
2016,11,21,08,53,3.20
2016,11,21,08,54,3.20
2016,11,21,08,55,3.20
2016,11,21,08,56,3.20
2016,11,21,08,57,4.80
2016,11,21,08,58,3.20
2016,11,21,08,59,3.20
2016,11,21,09,00,3.20
2016,11,21,09,02,1.60
2016,11,21,09,03,1.60
2016,11,21,09,04,1.60
2016,11,21,09,06,1.60
2016,11,21,09,07,1.60
2016,11,21,09,11,3.20
2016,11,21,09,12,3.20
2016,11,21,09,13,1.60
2016,11,21,09,14,1.60
2016,11,21,09,17,1.60
2016,11,21,09,18,1.60
2016,11,21,09,25,3.20
2016,11,21,09,26,3.20
2016,11,21,09,27,1.60
2016,11,21,11,22,6.40
2016,11,21,11,23,4.80
2016,11,21,11,24,4.80
2016,11,21,11,25,4.80
2016,11,21,11,26,3.20
2016,11,21,11,27,3.20
2016,11,21,11,28,3.20
2016,11,21,11,29,3.20
2016,11,21,11,30,1.60
2016,11,21,11,31,1.60
2016,11,21,11,32,3.20
2016,11,21,11,33,3.20
2016,11,21,11,34,3.20
2016,11,21,11,35,3.20
2016,11,21,11,36,3.20
2016,11,21,11,37,4.80
2016,11,21,11,38,3.20
2016,11,21,11,39,3.20
2016,11,21,11,40,3.20
2016,11,21,11,41,3.20
2016,11,21,11,42,1.60
2016,11,21,11,43,3.20
2016,11,21,11,44,1.60
2016,11,21,11,45,3.20
2016,11,21,11,46,1.60
2016,11,21,11,47,3.20
2016,11,21,11,48,1.60
2016,11,21,11,49,3.20
2016,11,21,11,50,3.20
2016,11,21,11,51,3.20
2016,11,21,11,52,3.20
2016,11,21,11,53,3.20
2016,11,21,11,54,3.20
2016,11,21,11,55,4.80
2016,11,21,11,56,4.80
2016,11,21,11,57,4.80
2016,11,21,11,58,3.20
2016,11,21,11,59,3.20
2016,11,21,12,00,4.80
2016,11,21,12,01,4.80
2016,11,21,12,02,3.20
2016,11,21,12,03,4.80
2016,11,21,12,04,4.80
2016,11,21,12,05,3.20
2016,11,21,12,06,4.80
2016,11,21,12,07,4.80
2016,11,21,12,08,4.80
2016,11,21,12,09,3.20
2016,11,21,12,10,3.20
2016,11,21,12,11,3.20
2016,11,21,12,12,1.60
2016,11,21,12,13,1.60
2016,11,21,12,14,3.20
2016,11,21,12,15,1.60
2016,11,21,12,16,3.20
2016,11,21,12,17,3.20
2016,11,21,12,18,3.20
2016,11,21,12,19,3.20
2016,11,21,12,20,4.80
2016,11,21,12,21,3.20
2016,11,21,12,22,1.60
2016,11,21,12,23,3.20
2016,11,21,12,24,4.80
2016,11,21,12,25,4.80
2016,11,21,12,26,3.20
2016,11,21,12,27,4.80
2016,11,21,12,28,6.40
2016,11,21,12,29,6.40
2016,11,21,12,30,9.60
2016,11,21,12,31,9.60
2016,11,21,12,32,8.10
2016,11,21,12,33,9.60
2016,11,21,12,34,9.60
2016,11,21,12,35,6.40
2016,11,21,12,36,8.10
2016,11,21,12,37,8.10
2016,11,21,12,38,4.80
2016,11,21,12,39,8.10
2016,11,21,12,40,6.40
2016,11,21,12,41,4.80
2016,11,21,12,42,3.20
2016,11,21,12,43,3.20
2016,11,21,12,44,4.80
2016,11,21,12,45,6.40
2016,11,21,12,46,4.80
2016,11,21,12,47,4.80
2016,11,21,12,48,4.80
2016,11,21,12,49,4.80
2016,11,21,12,50,6.40
2016,11,21,12,51,6.40
2016,11,21,12,52,6.40
2016,11,21,12,53,4.80
2016,11,21,12,54,4.80
2016,11,21,12,55,3.20
2016,11,21,12,56,3.20
2016,11,21,12,57,4.80
2016,11,21,12,58,1.60
2016,11,21,12,59,1.60
2016,11,21,13,00,3.20
2016,11,21,13,03,6.40
2016,11,21,13,04,6.40
2016,11,21,13,05,8.10
2016,11,21,13,06,4.80
2016,11,21,13,07,6.40
2016,11,21,13,08,4.80
2016,11,21,13,09,6.40
2016,11,21,13,10,6.40
2016,11,21,13,11,4.80
2016,11,21,13,12,4.80
2016,11,21,13,13,3.20
2016,11,21,13,14,1.60
2016,11,21,13,18,1.60
2016,11,21,13,19,1.60
2016,11,21,13,20,6.40
2016,11,21,13,21,4.80
2016,11,21,13,22,3.20
2016,11,21,13,23,1.60
2016,11,21,13,24,3.20
2016,11,21,13,25,3.20
2016,11,21,13,26,4.80
2016,11,21,13,27,3.20
2016,11,21,13,28,3.20
2016,11,21,13,29,3.20
2016,11,21,13,30,4.80
2016,11,21,13,31,3.20
2016,11,21,13,32,3.20
2016,11,21,13,33,1.60
2016,11,21,13,34,3.20
2016,11,21,13,35,4.80
2016,11,21,13,36,3.20
2016,11,21,13,37,4.80
2016,11,21,13,38,3.20
2016,11,21,13,39,3.20
2016,11,21,13,40,3.20
2016,11,21,13,41,3.20
2016,11,21,13,42,3.20
2016,11,21,13,44,1.60
2016,11,21,13,45,3.20
2016,11,21,13,46,4.80
2016,11,21,13,47,4.80
2016,11,21,13,48,4.80
2016,11,21,13,49,4.80
2016,11,21,13,50,3.20
2016,11,21,13,51,3.20
2016,11,21,13,52,1.60
2016,11,21,13,53,1.60
2016,11,21,13,54,4.80
2016,11,21,13,55,3.20
2016,11,21,13,56,4.80
2016,11,21,13,57,4.80
2016,11,21,13,58,3.20
2016,11,21,13,59,4.80
2016,11,21,14,00,3.20
2016,11,21,14,01,4.80
2016,11,21,14,02,4.80
2016,11,21,14,03,4.80
2016,11,21,14,04,3.20
2016,11,21,14,05,1.60
2016,11,21,14,06,3.20
2016,11,21,14,10,3.20
2016,11,21,14,11,3.20
2016,11,21,14,12,1.60
2016,11,21,14,14,6.40
2016,11,21,14,15,6.40
2016,11,21,14,16,6.40
2016,11,21,14,17,6.40
2016,11,21,14,18,4.80
2016,11,21,14,19,8.10
2016,11,21,14,20,8.10
2016,11,21,14,21,4.80
2016,11,21,14,22,9.60
2016,11,21,14,23,8.10
2016,11,21,14,24,8.10
2016,11,21,14,25,8.10
2016,11,21,14,26,6.40
2016,11,21,14,27,8.10
2016,11,21,14,28,11.30
2016,11,21,14,29,11.30
2016,11,21,14,30,11.30
2016,11,21,14,31,8.10
2016,11,21,14,32,12.90
2016,11,21,14,33,12.90
2016,11,21,14,34,8.10
2016,11,21,14,35,8.10
2016,11,21,14,36,8.10
2016,11,21,14,37,6.40
2016,11,21,14,38,8.10
2016,11,21,14,39,8.10
2016,11,21,14,40,6.40
2016,11,21,14,41,4.80
2016,11,21,14,42,8.10
2016,11,21,14,43,6.40
2016,11,21,14,44,6.40
2016,11,21,14,45,4.80
2016,11,21,14,46,3.20
2016,11,21,14,47,4.80
2016,11,21,14,48,4.80
2016,11,21,14,49,3.20
2016,11,21,14,50,3.20
2016,11,21,14,51,3.20
2016,11,21,14,52,4.80
2016,11,21,14,53,4.80
2016,11,21,14,54,6.40
2016,11,21,14,55,6.40
2016,11,21,14,56,6.40
2016,11,21,14,57,4.80
2016,11,21,14,58,4.80
2016,11,21,14,59,4.80
2016,11,21,15,00,4.80
2016,11,21,15,01,4.80
2016,11,21,15,02,4.80
2016,11,21,15,03,8.10
2016,11,21,15,04,4.80
2016,11,21,15,05,4.80
2016,11,21,15,06,4.80
2016,11,21,15,07,4.80
2016,11,21,15,08,9.60
2016,11,21,15,09,12.90
2016,11,21,15,10,11.30
2016,11,21,15,11,11.30
2016,11,21,15,12,11.30
2016,11,21,15,13,11.30
2016,11,21,15,14,11.30
2016,11,21,15,15,9.60
2016,11,21,15,16,4.80
2016,11,21,15,17,6.40
2016,11,21,15,18,8.10
2016,11,21,15,19,11.30
2016,11,21,15,20,12.90
2016,11,21,15,21,12.90
2016,11,21,15,22,9.60
2016,11,21,15,23,8.10
2016,11,21,15,24,8.10
2016,11,21,15,25,12.90
2016,11,21,15,26,8.10
2016,11,21,15,27,11.30
2016,11,21,15,28,11.30
2016,11,21,15,29,11.30
2016,11,21,15,30,6.40
2016,11,21,15,31,4.80
2016,11,21,15,32,6.40
2016,11,21,15,33,11.30
2016,11,21,15,34,8.10
2016,11,21,15,35,6.40
2016,11,21,15,36,3.20
2016,11,21,15,37,6.40
2016,11,21,15,38,6.40
2016,11,21,15,39,9.60
2016,11,21,15,40,9.60
2016,11,21,15,41,8.10
2016,11,21,15,42,8.10
2016,11,21,15,43,6.40
2016,11,21,15,44,6.40
2016,11,21,15,45,9.60
2016,11,21,15,46,6.40
2016,11,21,15,47,11.30
2016,11,21,15,48,11.30
2016,11,21,15,49,9.60
2016,11,21,15,50,8.10
2016,11,21,15,51,11.30
2016,11,21,15,52,12.90
2016,11,21,15,53,11.30
2016,11,21,15,54,11.30
2016,11,21,15,55,9.60
2016,11,21,15,56,9.60
2016,11,21,15,57,6.40
2016,11,21,15,58,6.40
2016,11,21,15,59,11.30
2016,11,21,16,00,11.30
2016,11,21,16,01,4.80
2016,11,21,16,02,4.80
2016,11,21,16,03,4.80
2016,11,21,16,04,9.60
2016,11,21,16,05,9.60
2016,11,21,16,06,9.60
2016,11,21,16,07,9.60
2016,11,21,16,08,9.60
2016,11,21,16,09,4.80
2016,11,21,16,10,6.40
2016,11,21,16,11,6.40
2016,11,21,16,12,6.40
2016,11,21,16,13,4.80
2016,11,21,16,14,4.80
2016,11,21,16,15,4.80
2016,11,21,16,16,6.40
2016,11,21,16,17,9.60
2016,11,21,16,18,9.60
2016,11,21,16,19,9.60
2016,11,21,16,20,4.80
2016,11,21,16,21,4.80
2016,11,21,16,22,3.20
2016,11,21,16,23,4.80
2016,11,21,16,24,1.60
2016,11,21,16,25,4.80
2016,11,21,16,26,4.80
2016,11,21,16,27,4.80
2016,11,21,16,28,4.80
2016,11,21,16,29,4.80
2016,11,21,16,30,3.20
2016,11,21,16,31,3.20
2016,11,21,16,32,1.60
2016,11,21,16,33,1.60
2016,11,21,16,34,1.60
2016,11,21,16,35,1.60
2016,11,21,16,36,3.20
2016,11,21,16,37,3.20
2016,11,21,16,38,1.60
2016,11,21,16,39,3.20
2016,11,21,16,40,3.20
2016,11,21,16,41,1.60
2016,11,21,16,42,1.60
2016,11,21,16,43,3.20
2016,11,21,16,44,3.20
2016,11,21,16,45,8.10
2016,11,21,16,46,4.80
2016,11,21,16,47,4.80
2016,11,21,16,48,3.20
2016,11,21,16,49,4.80
2016,11,21,16,50,3.20
2016,11,21,16,51,6.40
2016,11,21,16,52,4.80
2016,11,21,16,53,6.40
2016,11,21,16,54,4.80
2016,11,21,16,55,4.80
2016,11,21,16,56,4.80
2016,11,21,16,57,6.40
2016,11,21,16,58,4.80
2016,11,21,16,59,3.20
2016,11,21,17,00,4.80
2016,11,21,17,01,3.20
2016,11,21,17,02,4.80
2016,11,21,17,03,4.80
2016,11,21,17,04,6.40
2016,11,21,17,05,6.40
2016,11,21,17,06,4.80
2016,11,21,17,07,11.30
2016,11,21,17,08,11.30
2016,11,21,17,09,11.30
2016,11,21,17,10,14.50
2016,11,21,17,11,11.30
2016,11,21,17,12,11.30
2016,11,21,17,13,9.60
2016,11,21,17,14,9.60
2016,11,21,17,15,9.60
2016,11,21,17,16,4.80
2016,11,21,17,17,4.80
2016,11,21,17,18,8.10
2016,11,21,17,19,6.40
2016,11,21,17,20,6.40
2016,11,21,17,21,6.40
2016,11,21,17,22,6.40
2016,11,21,17,23,9.60
2016,11,21,17,24,6.40
2016,11,21,17,25,6.40
2016,11,21,17,26,6.40
2016,11,21,17,27,6.40
2016,11,21,17,28,6.40
2016,11,21,17,29,6.40
2016,11,21,17,30,3.20
2016,11,21,17,31,4.80
2016,11,21,17,32,6.40
2016,11,21,17,33,6.40
2016,11,21,17,34,6.40
2016,11,21,17,35,6.40
2016,11,21,17,36,6.40
2016,11,21,17,37,6.40
2016,11,21,17,38,8.10
2016,11,21,17,39,6.40
2016,11,21,17,40,6.40
2016,11,21,17,41,4.80
2016,11,21,17,42,6.40
2016,11,21,17,43,8.10
2016,11,21,17,44,8.10
2016,11,21,17,45,6.40
2016,11,21,17,46,6.40
2016,11,21,17,47,6.40
2016,11,21,17,48,4.80
2016,11,21,17,49,9.60
2016,11,21,17,50,11.30
2016,11,21,17,51,11.30
2016,11,21,17,52,9.60
2016,11,21,17,53,9.60
2016,11,21,17,54,12.90
2016,11,21,17,55,9.60
2016,11,21,17,56,8.10
2016,11,21,17,57,9.60
2016,11,21,17,58,12.90
2016,11,21,17,59,8.10
2016,11,21,18,00,11.30
2016,11,21,18,01,9.60
2016,11,21,18,02,14.50
2016,11,21,18,03,12.90
2016,11,21,18,04,11.30
2016,11,21,18,05,14.50
2016,11,21,18,06,12.90
2016,11,21,18,07,8.10
2016,11,21,18,08,14.50
2016,11,21,18,09,11.30
2016,11,21,18,10,14.50
2016,11,21,18,11,11.30
2016,11,21,18,12,12.90
2016,11,21,18,13,12.90
2016,11,21,18,14,19.30
2016,11,21,18,15,16.10
2016,11,21,18,16,16.10
2016,11,21,18,17,14.50
2016,11,21,18,18,16.10
2016,11,21,18,19,16.10
2016,11,21,18,20,12.90
2016,11,21,18,21,14.50
2016,11,21,18,22,14.50
2016,11,21,18,23,11.30
2016,11,21,18,24,12.90
2016,11,21,18,25,16.10
2016,11,21,18,26,12.90
2016,11,21,18,27,12.90
2016,11,21,18,28,12.90
2016,11,21,18,29,19.30
2016,11,21,18,30,16.10
2016,11,21,18,31,16.10
2016,11,21,18,32,12.90
2016,11,21,18,33,16.10
2016,11,21,18,34,12.90
2016,11,21,18,35,12.90
2016,11,21,18,36,16.10
2016,11,21,18,37,11.30
2016,11,21,18,38,14.50
2016,11,21,18,39,11.30
2016,11,21,18,40,14.50
2016,11,21,18,41,16.10
2016,11,21,18,42,14.50
2016,11,21,18,43,12.90
2016,11,21,18,44,16.10
2016,11,21,18,45,12.90
2016,11,21,18,46,11.30
2016,11,21,18,47,12.90
2016,11,21,18,48,16.10
2016,11,21,18,49,14.50
2016,11,21,18,50,14.50
2016,11,21,18,51,16.10
2016,11,21,18,52,14.50
2016,11,21,18,53,16.10
2016,11,21,18,54,12.90
2016,11,21,18,55,16.10
2016,11,21,18,56,14.50
2016,11,21,18,57,16.10
2016,11,21,18,58,16.10
2016,11,21,18,59,19.30
2016,11,21,19,00,12.90
2016,11,21,19,01,16.10
2016,11,21,19,02,25.70
2016,11,21,19,03,20.90
2016,11,21,19,04,20.90
2016,11,21,19,05,24.20
2016,11,21,19,06,20.90
2016,11,21,19,07,19.30
2016,11,21,19,08,16.10
2016,11,21,19,09,17.70
2016,11,21,19,10,17.70
2016,11,21,19,11,19.30
2016,11,21,19,12,17.70
2016,11,21,19,13,20.90
2016,11,21,19,14,14.50
2016,11,21,19,15,19.30
2016,11,21,19,16,17.70
2016,11,21,19,17,17.70
2016,11,21,19,18,19.30
2016,11,21,19,19,17.70
2016,11,21,19,20,14.50
2016,11,21,19,21,14.50
2016,11,21,19,22,24.20
2016,11,21,19,23,16.10
2016,11,21,19,24,16.10
2016,11,21,19,25,19.30
2016,11,21,19,26,17.70
2016,11,21,19,27,20.90
2016,11,21,19,28,17.70
2016,11,21,19,29,22.50
2016,11,21,19,30,20.90
2016,11,21,19,31,20.90
2016,11,21,19,32,17.70
2016,11,21,19,33,20.90
2016,11,21,19,34,16.10
2016,11,21,19,35,12.90
2016,11,21,19,36,19.30
2016,11,21,19,37,25.70
2016,11,21,19,38,12.90
2016,11,21,19,39,20.90
2016,11,21,19,40,14.50
2016,11,21,19,41,11.30
2016,11,21,19,42,19.30
2016,11,21,19,43,19.30
2016,11,21,19,44,20.90
2016,11,21,19,45,20.90
2016,11,21,19,46,20.90
2016,11,21,19,47,20.90
2016,11,21,19,48,22.50
2016,11,21,19,49,24.20
2016,11,21,19,50,20.90
2016,11,21,19,51,16.10
2016,11,21,19,52,16.10
2016,11,21,19,53,16.10
2016,11,21,19,54,17.70
2016,11,21,19,55,20.90
2016,11,21,19,56,17.70
2016,11,21,19,57,19.30
2016,11,21,19,58,22.50
2016,11,21,19,59,16.10
2016,11,21,20,00,20.90
2016,11,21,20,01,14.50
2016,11,21,20,02,8.10
2016,11,21,20,03,17.70
2016,11,21,20,04,12.90
2016,11,21,20,05,20.90
2016,11,21,20,06,25.70
2016,11,21,20,07,20.90
2016,11,21,20,08,16.10
2016,11,21,20,09,17.70
2016,11,21,20,10,12.90
2016,11,21,20,11,16.10
2016,11,21,20,12,14.50
2016,11,21,20,13,19.30
2016,11,21,20,14,19.30
2016,11,21,20,15,20.90
2016,11,21,20,16,19.30
2016,11,21,20,17,30.60
2016,11,21,20,18,25.70
2016,11,21,20,19,27.40
2016,11,21,20,20,25.70
2016,11,21,20,21,19.30
2016,11,21,20,22,17.70
2016,11,21,20,23,19.30
2016,11,21,20,24,16.10
2016,11,21,20,25,22.50
2016,11,21,20,26,22.50
2016,11,21,20,27,14.50
2016,11,21,20,28,16.10
2016,11,21,20,29,22.50
2016,11,21,20,30,14.50
2016,11,21,20,31,14.50
2016,11,21,20,32,11.30
2016,11,21,20,33,16.10
2016,11,21,20,34,19.30
2016,11,21,20,35,14.50
2016,11,21,20,36,11.30
2016,11,21,20,37,12.90
2016,11,21,20,38,14.50
2016,11,21,20,39,12.90
2016,11,21,20,40,14.50
2016,11,21,20,41,8.10
2016,11,21,20,42,16.10
2016,11,21,20,43,14.50
2016,11,21,20,44,12.90
2016,11,21,20,45,9.60
2016,11,21,20,46,14.50
2016,11,21,20,47,11.30
2016,11,21,20,48,12.90
2016,11,21,20,49,22.50
2016,11,21,20,50,20.90
2016,11,21,20,51,20.90
2016,11,21,20,52,17.70
2016,11,21,20,53,20.90
2016,11,21,20,54,20.90
2016,11,21,20,55,24.20
2016,11,21,20,56,17.70
2016,11,21,20,57,20.90
2016,11,21,20,58,22.50
2016,11,21,20,59,25.70
2016,11,21,21,00,22.50
2016,11,21,21,01,22.50
2016,11,21,21,02,20.90
2016,11,21,21,03,19.30
2016,11,21,21,04,17.70
2016,11,21,21,05,29.00
2016,11,21,21,06,25.70
2016,11,21,21,07,17.70
2016,11,21,21,08,24.20
2016,11,21,21,09,27.40
2016,11,21,21,10,29.00
2016,11,21,21,11,20.90
2016,11,21,21,12,29.00
2016,11,21,21,13,29.00
2016,11,21,21,14,22.50
2016,11,21,21,15,22.50
2016,11,21,21,16,32.20
2016,11,21,21,17,29.00
2016,11,21,21,18,33.80
2016,11,21,21,19,24.20
2016,11,21,21,20,20.90
2016,11,21,21,21,24.20
2016,11,21,21,22,20.90
2016,11,21,21,23,24.20
2016,11,21,21,24,17.70
2016,11,21,21,25,33.80
2016,11,21,21,26,29.00
2016,11,21,21,27,32.20
2016,11,21,21,28,22.50
2016,11,21,21,29,20.90
2016,11,21,21,30,24.20
2016,11,21,21,31,25.70
2016,11,21,21,32,24.20
2016,11,21,21,33,27.40
2016,11,21,21,34,27.40
2016,11,21,21,35,20.90
2016,11,21,21,36,20.90
2016,11,21,21,37,14.50
2016,11,21,21,38,22.50
2016,11,21,21,39,32.20
2016,11,21,21,40,32.20
2016,11,21,21,41,29.00
2016,11,21,21,42,35.40
2016,11,21,21,43,35.40
2016,11,21,21,44,25.70
2016,11,21,21,45,20.90
2016,11,21,21,46,24.20
2016,11,21,21,47,30.60
2016,11,21,21,48,30.60
2016,11,21,21,49,25.70
2016,11,21,21,50,33.80
2016,11,21,21,51,30.60
2016,11,21,21,52,20.90
2016,11,21,21,53,22.50
2016,11,21,21,54,30.60
2016,11,21,21,55,30.60
2016,11,21,21,56,22.50
2016,11,21,21,57,25.70
2016,11,21,21,58,38.60
2016,11,21,21,59,30.60
2016,11,21,22,00,35.40
2016,11,21,22,01,29.00
2016,11,21,22,02,29.00
2016,11,21,22,03,37.00
2016,11,21,22,04,27.40
2016,11,21,22,05,37.00
2016,11,21,22,06,38.60
2016,11,21,22,07,32.20
2016,11,21,22,08,24.20
2016,11,21,22,09,35.40
2016,11,21,22,10,32.20
2016,11,21,22,11,46.70
2016,11,21,22,12,32.20
2016,11,21,22,13,37.00
2016,11,21,22,14,33.80
2016,11,21,22,15,29.00
2016,11,21,22,16,29.00
2016,11,21,22,17,41.80
2016,11,21,22,18,38.60
2016,11,21,22,19,37.00
2016,11,21,22,20,32.20
2016,11,21,22,21,29.00
2016,11,21,22,22,29.00
2016,11,21,22,23,41.80
2016,11,21,22,24,43.50
2016,11,21,22,25,41.80
2016,11,21,22,26,40.20
2016,11,21,22,27,30.60
2016,11,21,22,28,40.20
2016,11,21,22,29,25.70
2016,11,21,22,30,25.70
2016,11,21,22,31,32.20
2016,11,21,22,32,33.80
2016,11,21,22,33,35.40
2016,11,21,22,34,35.40
2016,11,21,22,35,37.00
2016,11,21,22,36,25.70
2016,11,21,22,37,38.60
2016,11,21,22,38,35.40
2016,11,21,22,39,38.60